sat.trackr.live / text

‹ back to catalog

STARLINK-31937

NORAD 59871 · 2024-098P

PAYLOAD ACTIVE UNKNOWN

§ Identity

Operator
Country
US
Launch date
2024-05-24
Launch site
AFETR
Launch vehicle
Mass (kg)
RCS (m²)

Purposes: comms

External: N2YO · Heavens-Above · Gunter

§ Orbital elements

Epoch: 2026-09-21T08:56:15.072288Z

Period
94.27 min
Inclination
43.0000°
Eccentricity
0.0000898
Mean motion
15.27576366 rev/d
Perigee alt
482.4 km
Apogee alt
483.7 km
Semi-major
6,861.2 km
B*
2.1913e-5
RAAN
245.9310°
Arg perigee
282.8148°
Mean anomaly
77.2604°
Rev number
13,185

§ Raw data

STARLINK-319371 59871U 24098P   26264.37239667  .00000341  00000+0  21913-4 0  99932 59871  43.0000 245.9310 0000898 282.8148  77.2604 15.27576366131853

JSON: /api/v1/satellites/59871 · /tle

For live sub-satellite position, see the globe view (requires WebGL).

§ Visibility from observer

Set your observer location to see the next 7 days of passes ≥ 10°. The values pass through the URL so the page stays shareable.

No JS? Fill the form by hand. The geolocation button needs JavaScript.